Location: Newark
(35.8833°N, 14.5000°E)
Time: 05:03:52
(UTC+00:00)

Altair - Pass Details

Date: 27 November 2019
Orbit: 1502 x 1682 km, 47.2° (Epoch: 05 December)

Event Time Altitude Azimuth Distance (km) Brightness Sun altitude
Rises 20:09:14 0° 169° (S) 4,747 - -52.2°
Reaches altitude 10° 20:15:29 10° 139° (SE) 3,721 - -53.4°
Maximum altitude 20:18:06 11° 122° (ESE) 3,593 - -53.9°
Drops below altitude 10° 20:20:42 10° 105° (ESE) 3,692 - -54.4°
Sets 20:26:44 0° 76° (ENE) 4,650 - -55.6°
